#timestamp,LO_Frequency,Hit,StdDev 
1653912015.2,286046995.5,N
1653912035.1,286046995.3,N
1653912036.0,286046995.3,N
1653912055.8,286046995.4,N
1653912075.6,286046997.6,N
1653912095.5,286046997.2,N
1653912115.3,286046997.4,N
1653912135.1,286046997.2,N
1653912155.9,286046997.6,N
1653912175.7,286046997.9,N
1653912195.6,286046997.6,N
1653912215.4,286046997.9,N
1653912235.2,286046995.3,N
1653912255.1,286046996.1,N
1653912256.0,286046996.1,N
1653912275.8,286046995.0,Y
1653912295.6,286046998.2,P
1653912315.5,286046998.7,N
1653912335.3,286046999.1,N
1653912355.2,286046999.4,N
1653912375.9,286046997.1,N
1653912395.7,286046996.8,N
1653912415.6,286046997.7,N
1653912435.4,286046997.7,N
1653912455.3,286046996.8,Y
1653912475.1,286047000.8,P
1653912476.0,286047000.8,N
1653912495.8,286047000.0,N
1653912515.7,286047000.1,N
1653912535.5,286047001.7,N
1653912555.3,286047003.9,Y
1653912575.2,286047001.5,P
1653912595.0,286047002.1,P
1653912595.9,286047002.1,N
1653912615.8,286047002.2,N
1653912635.6,286046999.8,N
1653912655.4,286046999.7,N
1653912675.3,286047001.2,N
1653912695.1,286046998.9,N
1653912715.8,286046999.5,N
1653912735.7,286046999.6,N
1653912755.5,286046999.4,N
1653912775.4,286046999.4,N
1653912795.2,286046999.3,N
1653912815.0,286046997.1,N
1653912815.9,286046997.1,N
1653912835.8,286046996.6,N
1653912855.6,286046996.7,N
1653912875.4,286046997.0,N
1653912895.3,286046994.9,N
1653912915.1,286046998.0,N
1653912935.9,286046997.9,N
1653912955.7,286046997.4,N
1653912975.5,286046997.3,N
1653912995.4,286046997.3,N
1653913015.2,286046997.1,N
1653913035.0,286046997.6,N
1653913036.0,286046997.6,N
1653913055.8,286046995.0,N
1653913075.6,286046995.7,N
1653913095.5,286046995.5,N
1653913115.3,286046995.1,N
1653913135.1,286046995.2,N
1653913155.9,286046995.4,N
1653913175.7,286046995.3,N
1653913195.6,286046997.9,N
1653913215.4,286046997.0,N
1653913235.2,286046999.2,N
1653913255.1,286046999.3,N
1653913256.0,286046999.3,N
1653913275.8,286046998.5,N
1653913295.6,286047001.1,N
1653913315.5,286046998.4,N
1653913335.3,286046998.6,N
1653913355.2,286046998.5,N
1653913375.9,286047001.0,N
1653913395.7,286047000.3,N
1653913415.6,286047000.0,N
1653913435.4,286047000.8,N
1653913455.2,286047000.8,N
1653913475.1,286046998.9,N
1653913476.0,286046998.9,N
1653913495.8,286046996.5,N
1653913515.7,286046997.1,N
1653913535.5,286046997.2,N
1653913555.3,286046997.6,N
1653913575.2,286046997.4,N
1653913595.0,286046997.7,N
1653913595.9,286046997.7,N
1653913615.7,286046997.7,N
1653913635.6,286046997.9,N
1653913655.4,286046997.9,N
1653913675.3,286046997.6,N
1653913695.1,286046994.9,Y
1653913715.8,286046999.5,P
1653913735.7,286046999.5,N
1653913755.5,286046999.1,N
1653913775.4,286046996.6,Y
1653913795.2,286046999.0,P
1653913815.0,286047000.0,N
1653913815.9,286047000.0,N
1653913835.8,286047002.1,Y
1653913855.6,286047003.9,P
1653913875.4,286047005.6,N
1653913895.3,286047007.4,N
1653913915.1,286047009.0,Y
1653913935.9,286047004.8,P
1653913955.7,286047008.2,P
1653913975.5,286047012.1,P
1653913995.4,286047011.3,Y
1653914015.2,286047006.1,P
1653914035.1,286047008.3,P
1653914036.0,286047008.3,P
1653914055.8,286047009.4,Y
1653914075.6,286047005.4,P
1653914095.5,286047005.3,P
1653914115.3,286047005.2,P
1653914135.1,286047005.1,Y
1653914155.9,286047002.8,P
1653914175.7,286047001.5,N
1653914195.6,286047002.2,N
1653914215.4,286047002.1,N
1653914235.2,286047002.2,N
1653914255.1,286047001.4,N
1653914256.0,286047001.4,N
1653914275.8,286047001.4,N
1653914295.6,286047003.9,N
1653914315.5,286047003.1,N
1653914335.3,286047004.7,Y
1653914355.2,286047005.3,P
1653914375.9,286047005.1,P
1653914395.7,286047004.0,P
1653914415.6,286047000.8,N
1653914435.4,286046997.3,N
1653914455.3,286046995.8,N
1653914475.1,286046991.8,N
1653914476.0,286046991.8,N
1653914495.8,286046991.6,N
1653914515.7,286046988.9,N
1653914535.5,286046987.2,N
1653914555.3,286046988.3,N
1653914575.2,286046985.4,N
1653914595.0,286046986.6,N
1653914595.9,286046986.6,N
1653914615.8,286046984.0,N
1653914635.6,286046984.2,N
1653914655.4,286046984.0,N
1653914675.3,286046984.6,N
1653914695.1,286046982.9,N
1653914715.8,286046983.5,N
1653914735.7,286046983.5,N
1653914755.5,286046981.0,N
1653914775.4,286046980.8,N
1653914795.2,286046981.1,N
1653914815.0,286046980.5,N
1653914815.9,286046980.5,N
1653914835.8,286046980.7,N
1653914855.6,286046980.5,N
1653914875.4,286046981.4,N
1653914895.3,286046978.9,N
1653914915.1,286046981.2,N
1653914935.9,286046983.2,N
1653914955.7,286046983.4,Y
1653914975.5,286046997.2,P
1653914995.4,286046997.3,N
1653915015.2,286046999.1,N
1653915035.1,286046997.0,N
1653915036.0,286046997.0,N
1653915055.8,286046999.3,N
1653915075.6,286046999.4,N
1653915095.5,286046999.4,N
1653915115.3,286046998.9,N
1653915135.1,286046997.0,N
1653915155.9,286046997.5,N
1653915175.7,286046997.6,N
1653915195.6,286046994.9,N
1653915215.4,286046997.1,N
1653915235.2,286046996.9,N
1653915255.1,286046997.7,N
1653915256.0,286046997.7,N
1653915275.8,286046997.3,N
1653915295.7,286046997.7,N
1653915315.5,286046997.8,N
1653915335.3,286046997.1,N
1653915355.2,286046997.7,N
1653915375.0,286046999.5,N
1653915375.9,286046999.5,N
1653915395.8,286046998.7,N
1653915415.6,286047001.2,N
1653915435.4,286047001.1,N
1653915455.3,286047000.7,N
1653915475.1,286046998.9,N
1653915495.9,286046999.6,N
1653915515.7,286046999.1,N
1653915535.5,286046996.6,N
1653915555.4,286046997.8,N
1653915575.2,286046997.2,N
1653915595.0,286046997.8,N
1653915595.9,286046997.8,N
